Lancaster, CA

8:07 PM PDT on October 23, 2017 (GMT -0700)
Gen Fox

Weather History for KWJF - November, 2014

Change the Weather History Date:

Friday, November 14, 2014

  Actual Average Record
Temperature  
Mean Temperature 59 °F 52 °F  
Max Temperature 66 °F 68 °F 82 °F (1962)
Min Temperature 52 °F 36 °F 22 °F (2012)
Degree Days  
Heating Degree Days 6    
Month to date heating degree days 116  
Since 1 July heating degree days 165  
Cooling Degree Days 0    
Month to date cooling degree days 2  
Year to date cooling degree days 2055  
Growing Degree Days 10 (Base 50)    
Moisture  
Dew Point 42 °F    
Average Humidity 55    
Maximum Humidity 72    
Minimum Humidity 37    
Precipitation  
Precipitation 0.00 in 0.02 in 0.32 in (1952)
Month to date precipitation 0.16 0.23  
Year to date precipitation 2.65 5.92  
Since 1 July precipitation 0.33  
Snow  
Snow 0.00 in - 0.00 in ()
Month to date snowfall 0.0  
Since 1 July snowfall 0.0  
Since 1 September snowfall 0.0  
Snow Depth 0.00 in    
Sea Level Pressure  
Sea Level Pressure 29.99 in    
Wind  
Wind Speed 23 mph (West)    
Max Wind Speed 35 mph    
Max Gust Speed 40 mph    
Visibility 8 miles    
Events      
T = Trace of Precipitation, MM = Missing Value Source: NWS Daily Summary

Daily Weather History Graph

Daily Weather History Graph

Search for Another Location

Airport or City:

Trip Planner

Search our weather history database for the weather conditions in past years. The results will help you decide how hot, cold, wet, or windy it might be!

Date:

Astronomy

Nov. 14, 2014 Rise Set
Actual Time 6:25 AM PST 4:48 PM PST
Civil Twilight 5:59 AM PST 5:15 PM PST
Nautical Twilight 5:28 AM PST 5:45 PM PST
Astronomical Twilight 4:58 AM PST 6:15 PM PST
Moon 11:59 PM PST (11/14) 12:25 PM PST (11/14)
Length of Visible Light 11h 15m
Length of Day
10h 22m
Waning Gibbous, 48% of the Moon is Illuminated
Nov 14
Waning Gibbous
Nov 22
New
Nov 29
First Quarter
Dec 6
Full
Dec 14
Last Quarter

Hourly Weather History & Observations

Time (PST) Temp. Dew Point Humidity Pressure Visibility Wind Dir Wind Speed Gust Speed Precip Events Conditions
12:56 AM 57.0 °F 46.0 °F 67% 29.95 in 10.0 mi West 21.9 mph - N/A   Clear
1:56 AM 55.9 °F 45.0 °F 67% 29.97 in 10.0 mi West 18.4 mph - N/A   Clear
2:56 AM 55.9 °F 46.0 °F 69% 29.97 in 10.0 mi West 20.7 mph - N/A   Clear
3:56 AM 55.0 °F 46.0 °F 72% 29.97 in 10.0 mi West 16.1 mph - N/A   Clear
4:56 AM 55.0 °F 45.0 °F 69% 29.98 in 10.0 mi West 18.4 mph - N/A   Clear
5:56 AM 55.9 °F 45.0 °F 67% 29.99 in 10.0 mi WSW 17.3 mph - N/A   Clear
6:56 AM 55.9 °F 44.1 °F 64% 30.00 in 10.0 mi WSW 19.6 mph - N/A   Clear
7:56 AM 57.0 °F 45.0 °F 64% 30.02 in 10.0 mi West 16.1 mph - N/A   Clear
8:56 AM 61.0 °F 43.0 °F 52% 30.02 in 10.0 mi West 23.0 mph - N/A   Clear
9:56 AM 63.0 °F 43.0 °F 48% 30.02 in 10.0 mi West 25.3 mph - N/A   Clear
10:56 AM 64.9 °F 42.1 °F 43% 30.01 in 10.0 mi West 24.2 mph 31.1 mph N/A   Clear
11:56 AM 64.9 °F 42.1 °F 43% 29.99 in 7.0 mi West 28.8 mph - N/A   Clear
12:53 PM 66.2 °F 39.2 °F 37% 29.98 in 1.8 mi West 31.1 mph 38.0 mph N/A   Haze
12:56 PM 66.0 °F 39.9 °F 38% 29.96 in 1.8 mi West 31.1 mph - N/A   Haze
1:11 PM 64.9 °F 39.9 °F 40% 29.97 in 1.0 mi West 34.5 mph 38.0 mph N/A   Haze
1:22 PM 64.9 °F 41.0 °F 42% 29.98 in 2.5 mi West 29.9 mph 38.0 mph N/A   Haze
1:29 PM 64.9 °F 41.0 °F 42% 29.97 in 4.0 mi West 32.2 mph - N/A   Haze
1:42 PM 64.0 °F 39.9 °F 41% 29.98 in 2.5 mi West 32.2 mph 39.1 mph N/A   Haze
1:56 PM 64.0 °F 39.9 °F 41% 29.96 in 7.0 mi West 29.9 mph - N/A   Clear
2:56 PM 64.0 °F 39.9 °F 41% 29.96 in 10.0 mi West 24.2 mph 29.9 mph N/A   Clear
3:56 PM 61.0 °F 39.9 °F 46% 29.96 in 10.0 mi West 28.8 mph 35.7 mph N/A   Clear
4:56 PM 57.9 °F 39.9 °F 51% 29.98 in 10.0 mi West 24.2 mph - N/A   Clear
5:56 PM 55.0 °F 42.1 °F 62% 30.01 in 10.0 mi SW 17.3 mph - N/A   Clear
6:56 PM 55.0 °F 42.1 °F 62% 30.02 in 10.0 mi WSW 17.3 mph - N/A   Clear
7:56 PM 55.0 °F 42.1 °F 62% 30.03 in 10.0 mi West 24.2 mph - N/A   Clear
8:56 PM 54.0 °F 41.0 °F 62% 30.02 in 10.0 mi West 26.5 mph - N/A   Clear
9:56 PM 54.0 °F 41.0 °F 62% 30.00 in 10.0 mi West 26.5 mph - N/A   Clear
10:56 PM 53.1 °F 39.0 °F 59% 30.01 in 10.0 mi West 24.2 mph - N/A   Clear
11:56 PM 53.1 °F 37.9 °F 57% 30.01 in 10.0 mi West 15.0 mph - N/A   Clear